Dewpoint
38 40 41 42 44 46 48 52 53 61 61 61 62 62 62 61 61 61 61 61 61 60 60 60 59 60 59 59 59 59 57 57 54 54 55 56 57 57 56 57 57 57 55
36 38 39 39 40 42 43 44 48 50 61 61 60 60 61 61 61 60 59 60 60 59 59 59 59 58 59 58 58 57 57 56 55 52 54 55 55 56 56 56 56 55 57
35 36 37 37 38 39 40 41 43 45 48 57 60 60 60 60 59 59 59 59 59 58 58 57 57 57 58 58 57 56 56 55 55 53 53 55 55 55 55 56 55 56 48
33 34 35 35 36 37 37 39 40 41 41 43 45 56 59 58 58 58 59 58 57 57 58 57 57 58 58 57 56 57 55 55 54 53 53 53 54 55 55 54 55 52 48
31 32 33 34 35 35 36 36 37 38 39 39 39 39 40 39 38 40 50 57 57 57 57 57 58 57 52 54 57 56 55 54 54 53 53 53 53 53 53 54 54 51 46
29 30 31 32 32 33 33 34 35 35 36 36 37 37 36 36 36 37 39 50 57 56 56 57 57 51 51 45 45 47 54 55 54 53 53 52 52 53 53 53 53 48 45
28 28 29 30 31 31 32 32 32 33 33 33 34 34 34 34 35 36 38 39 43 48 49 52 54 50 49 46 38 37 36 36 38 54 53 53 53 53 53 53 53 51 49
26 26 27 28 30 30 31 31 31 32 32 31 31 32 32 33 35 35 35 35 34 34 35 37 41 43 42 43 41 36 34 34 35 36 39 38 37 41 51 53 53 45 36
25 26 26 27 28 29 30 31 32 31 31 30 30 30 31 31 33 34 35 34 33 32 32 34 35 35 36 39 37 34 32 31 34 34 34 34 34 34 35 42 39 40 33
25 26 26 28 27 27 29 30 32 32 32 32 31 30 30 30 32 32 32 33 32 32 32 31 32 33 34 34 34 34 30 31 30 30 30 29 29 30 30 32 35 39 33
25 25 26 27 28 28 30 30 30 32 32 31 32 32 30 31 31 30 31 29 28 27 28 29 30 31 32 32 32 31 30 29 28 27 26 27 26 25 25 27 28 33 33
24 24 25 26 27 28 27 29 29 28 28 28 28 29 30 31 29 29 29 28 28 27 26 27 28 29 29 28 29 29 29 28 27 25 24 24 24 23 25 25 26 26 26
23 21 22 23 24 25 26 27 26 27 25 25 26 26 26 28 29 28 27 27 26 27 28 28 27 27 27 27 28 27 26 26 25 23 22 22 24 25 25 26 26 26 26
21 21 19 19 20 21 21 21 23 26 24 24 24 25 25 26 26 27 29 30 27 27 26 26 26 25 25 25 26 26 27 26 25 24 23 24 25 24 23 25 23 24 23
20 20 21 20 19 17 20 21 22 25 25 23 24 25 25 24 25 25 25 26 27 24 26 26 25 24 23 23 23 23 25 25 25 25 24 24 24 24 23 23 23 23 22
18 19 21 21 20 18 16 16 20 20 21 22 22 24 24 23 22 22 22 22 21 21 23 23 23 22 21 21 20 19 20 20 23 24 24 24 23 23 21 19 19 20 20
20 20 20 20 19 17 16 16 16 19 16 17 19 20 20 20 21 21 19 19 19 19 20 20 19 20 19 18 17 17 16 17 19 20 21 21 20 17 17 16 16 14 13
20 16 20 21 21 18 17 17 17 16 16 16 15 16 17 18 18 18 16 17 17 16 16 16 16 16 15 14 14 14 14 15 15 14 16 17 18 17 16 15 15 16 14
19 20 20 21 20 16 17 17 16 15 14 14 14 13 12 13 14 15 15 16 15 14 13 13 14 13 13 12 14 14 15 14 14 15 15 16 17 15 14 13 12 11 11
18 17 16 19 19 19 17 16 15 14 13 12 11 10 12 12 13 12 12 13 13 12 12 11 10 10 11 12 13 14 14 14 14 14 15 16 17 15 14 12 13 11 8
18 18 16 17 17 17 16 16 15 14 13 12 11 9 5 9 9 9 9 10 10 9 10 9 9 9 9 8 7 10 9 11 10 11 13 13 15 14 13 13 12 9 7
15 15 15 15 15 16 15 15 15 14 12 11 11 9 5 10 8 7 6 7 8 8 6 6 4 3 2 3 3 6 5 6 7 8 10 10 12 12 12 12 11 11 9
13 13 12 12 13 13 14 13 15 15 14 13 11 10 10 10 8 7 7 7 6 6 5 5 4 2 2 2 2 2 1 1 2 4 7 10 10 11 12 11 9 9 8
12 12 10 11 12 12 13 13 13 11 12 13 13 12 11 10 10 7 7 7 7 6 5 3 3 1 -0 1 2 1 -1 -1 1 1 2 7 8 7 9 8 7 6 7
11 11 11 10 10 10 11 11 11 12 12 12 12 12 10 10 9 9 8 6 5 6 2 3 3 -0 -2 -4 -3 -3 -4 -5 -4 -5 3 3 3 3 4 5 5 5 3
10 9 9 10 10 10 9 9 10 10 10 10 11 10 10 9 9 9 7 5 5 5 2 5 1 -4 -5 -2 -3 -5 -6 -6 -5 -8 -0 3 4 4 5 2 -3 5 1
Lifted_Index
2 2 2 1 1 0 -0 -1 -1 -2 -2 -3 -3 -3 -3 -2 -2 -2 -2 -2 -1 -0 -0 -0 0 1 2 2 2 3 3 3 2 2 2 2 3 3 3 4 4 4 4
2 2 1 1 1 1 0 0 -0 -1 -2 -2 -2 -2 -2 -2 -2 -2 -2 -1 -1 -1 -0 -0 0 1 2 2 2 2 2 2 2 2 2 2 3 3 4 4 4 4 4
2 2 1 1 1 1 0 0 -0 -1 -2 -2 -2 -2 -2 -2 -2 -2 -1 -1 -1 -1 -0 0 1 1 2 2 2 2 2 2 2 2 2 2 3 4 4 4 4 4 4
3 3 2 1 1 1 0 -0 -1 -1 -1 -1 -1 -1 -1 -1 -1 -1 -1 -1 -1 -0 0 1 2 2 2 1 1 1 2 2 2 2 2 3 3 4 5 5 4 4 4
5 5 4 4 3 2 2 1 0 0 0 0 0 0 0 -0 -0 -0 -1 -1 -0 0 1 2 2 2 2 1 1 1 2 2 2 2 3 3 4 4 4 4 4 4 4
7 7 7 7 6 5 5 4 3 2 2 2 2 2 2 1 0 -0 -0 -0 1 2 2 2 2 2 2 1 1 1 1 2 2 2 3 3 4 4 4 4 4 3 3
9 9 9 9 8 8 8 7 6 5 4 4 4 4 3 3 2 1 0 1 2 3 2 2 2 2 2 1 1 1 1 2 2 2 2 3 3 4 4 3 3 3 3
10 10 10 10 10 10 10 9 9 8 7 7 6 6 6 5 5 3 3 2 3 3 3 3 2 2 2 1 1 1 1 2 2 2 2 3 3 3 3 3 3 3 3
11 11 11 11 11 11 11 11 11 10 10 9 9 9 9 9 8 7 5 5 4 4 3 3 3 2 2 1 1 1 1 1 2 2 2 2 2 2 2 2 2 2 2
13 13 12 12 12 11 11 11 11 11 11 11 11 11 11 11 11 10 9 8 6 6 6 6 5 4 3 2 2 2 2 2 2 2 2 2 2 3 3 3 3 3 2
15 14 14 13 13 13 13 12 12 12 12 12 11 12 12 13 13 13 12 11 10 9 8 8 8 8 7 5 5 4 4 4 4 4 3 3 3 3 4 4 5 4 4
15 15 15 15 15 14 14 13 13 12 12 11 11 12 13 14 15 15 15 14 13 12 11 11 12 12 11 10 10 9 9 9 8 7 6 6 6 7 7 8 9 9 8
16 15 15 16 15 15 15 14 14 13 13 12 12 12 13 15 16 16 16 16 15 14 14 14 14 14 14 14 13 13 13 13 12 11 10 11 11 12 12 13 13 13 12
16 16 16 16 16 16 16 15 15 15 14 14 13 13 14 15 16 16 17 16 16 15 15 15 15 15 15 15 15 15 15 15 14 13 13 14 15 15 15 15 15 14 13
16 16 16 16 16 16 16 16 16 17 17 16 16 15 15 15 16 17 17 17 16 16 16 15 14 14 14 14 15 15 16 16 16 15 15 16 16 16 16 16 16 15 14
17 17 17 17 17 17 17 17 17 18 18 18 18 17 17 17 18 18 18 18 18 17 16 15 14 14 14 14 15 15 16 16 17 17 17 17 17 17 17 17 17 17 16
17 17 17 17 17 17 17 17 17 18 19 19 19 19 19 19 18 18 18 18 18 18 17 16 15 15 15 15 16 16 16 17 18 18 18 18 18 18 18 19 19 19 19
18 18 18 18 18 18 18 17 17 17 18 19 19 20 20 20 19 19 19 19 18 18 18 17 17 17 18 18 18 18 19 19 20 20 20 20 20 20 20 20 21 21 21
19 19 19 19 19 19 19 18 18 18 18 18 19 20 21 21 20 20 20 19 19 18 19 19 19 20 20 20 20 21 21 21 21 21 21 21 21 21 21 21 21 21 21
20 20 20 20 20 20 20 20 19 19 19 19 20 20 21 21 20 20 20 20 20 20 20 20 21 21 21 21 21 21 21 21 22 22 22 22 22 22 21 21 21 21 21
21 21 21 21 21 21 21 20 20 20 20 20 20 21 22 21 21 21 21 21 21 22 22 22 22 22 22 22 22 22 22 22 22 22 22 22 22 22 22 22 22 21 21
21 21 21 21 21 21 21 21 21 21 21 21 21 22 22 22 21 22 22 22 23 23 24 23 23 23 23 23 23 23 23 22 23 23 23 23 23 22 22 22 22 22 22
21 21 20 20 21 21 20 20 20 20 20 21 21 21 22 22 22 22 22 23 24 24 25 24 24 24 24 24 24 24 24 23 24 24 23 23 23 23 23 22 22 22 22
20 20 20 19 19 19 19 19 19 19 19 19 20 20 20 21 21 21 22 22 23 23 24 24 24 24 24 24 24 24 24 24 24 24 24 23 23 23 23 22 22 22 22
19 19 18 18 17 17 17 17 17 17 17 18 18 18 19 19 20 20 20 21 21 22 22 23 23 23 23 23 23 23 24 24 24 24 24 23 23 22 22 22 22 22 22
18 18 17 17 16 16 16 16 16 16 17 17 17 18 18 18 19 19 19 20 20 21 21 22 22 23 23 23 23 23 23 23 23 23 23 23 22 22 22 22 22 22 22